world map with GLV marked

GLV - Airport

This information may not be accurate or current and is not valid for navigation or flight planning. No warranty of fitness for any purpose is made or implied.

flag of Alaskaflag of United States

Donate via PayPal

Additional information is available on the NEW Great Circle Mapper

Location
City:  Golovin, Alaska, United States
ICAO / IATA:PAGL / GLV
FAA:GLV

Details
Type:Airport (Airfield)
Use:Public/Civil
Latitude:64°33'02"N (64.550444)
Longitude:163°00'26"W (-163.007166)
Datum:WGS 1984
Elevation:61 ft (19 m)
Runways:1
Longest:4000 × 75 ft (1219 × 23 m)

Time
Timezone:UTC+25:08 (DST+26:08)
Local Time:

Weather
METAR:PAGL  310606Z 36009KT 10SM CLR M11/M14 A2979 RMK VIA PHONE

Related Locations
Nearby:
Farthest:FAME: 10977 mi / 17666 km
Marion Island, Prince Edward Islands, ZA

Find:

   beyond  
but within

Other Information
Maps:
Links:
Sources:

  

Sectional Chart

Flight Planning
at skyvector.com

 


Great Circle Mapper   Great Circle Mapper
Great Circle Mapper FAQ   Great Circle Mapper FAQ
  Karl's Home Page
KLSē   KLSē Home
   GC on Facebook
Airlines of the World   Airlines of the World
Donate via PayPal


Copyright © 2004-2014, Karl L. Swartz. All rights reserved.
All trademarks mentioned herein belong to their respective owners.

Please see credits for attribution and copyright information.

Karl Swartz <karl@kls2.com>
  Powered by FreeBSD
Valid HTML 4.01!
Labeled with ICRA
hCard Microformat
Geo Microformat